Regional Weather Roundup
Issued by NWS

Home | Current Version | Previous Version | Graphics & Text | Print | Product List | Glossary On
Versions: 1 2 3 4 5 6 7 8 9 10 11 12 13 14 15 16 17 18 19 20 21 22 23 24 25 26 27 28 29 30 31 32 33 34 35 36 37 38 39 40 41 42 43 44 45 46 47 48 49 50
000
ASUS43 KMKX 300011
RWRWI

WISCONSIN REGIONAL WEATHER ROUNDUP
NATIONAL WEATHER SERVICE MILWAUKEE/SULLIVAN WI
700 PM CDT MON AUG 29 2016

NOTE: "FAIR" INDICATES FEW OR NO CLOUDS BELOW 12,000 FEET WITH NO
SIGNIFICANT WEATHER AND/OR OBSTRUCTIONS TO VISIBILITY.

WIZ001-002-006>008-014>016-023>028-300100-
NORTHWEST WISCONSIN

CITY           SKY/WX    TMP DP  RH WIND       PRES   REMARKS
SUPERIOR ARPT  CLOUDY    81  71  71 SW3       30.07F HX  85
6HR MIN TEMP:  74; 6HR MAX TEMP:  83;

ASHLAND        CLOUDY    80  72  76 CALM      30.09F HX  84
6HR MIN TEMP:  78; 6HR MAX TEMP:  85;

HAYWARD        CLOUDY    77  69  76 S7        30.13F
6HR MIN TEMP:  77; 6HR MAX TEMP:  84;

SIREN          CLOUDY    79  70  73 S5        30.13R HX  82
6HR MIN TEMP:  79; 6HR MAX TEMP:  85;

CUMBERLAND     PTCLDY    77  68  73 S5        30.14F
RICE LAKE      PTCLDY    78  70  75 S3        30.15F HX  80
6HR MIN TEMP:  78; 6HR MAX TEMP:  82;

CHETEK         NOT AVBL
LADYSMITH      CLEAR     78  71  77 CALM      30.16F HX  81
6HR MIN TEMP:  78; 6HR MAX TEMP:  84;

EAU CLAIRE     PTCLDY    81  71  71 SW7       30.12F HX  85
6HR MIN TEMP:  79; 6HR MAX TEMP:  85;

MENOMONIE      PTCLDY    81  71  71 S6        30.13F HX  85
6HR MIN TEMP:  78; 6HR MAX TEMP:  85;

NEW RICHMOND   PTCLDY    80  71  74 SW3       30.13S HX  83
6HR MIN TEMP:  79; 6HR MAX TEMP:  82;

OSCEOLA        PTCLDY    81  71  72 S5        30.13F HX  85
6HR MIN TEMP:  81; 6HR MAX TEMP:  84;

$$

WIZ003>005-009-010-017-018-300100-
NORTH CENTRAL WISCONSIN

CITY           SKY/WX    TMP DP  RH WIND       PRES   REMARKS
MANITOWISH WTR NOT AVBL
ARBOR VITAE    PTCLDY    77  68  72 SW8       30.17F
6HR MIN TEMP:  77; 6HR MAX TEMP:  83;

WOODRUFF       PTCLDY    77  68  72 SW8       30.17F
6HR MIN TEMP:  77; 6HR MAX TEMP:  83;

RHINELANDER    PTCLDY    78  71  79 S3        30.18F HX  80
6HR MIN TEMP:  78; 6HR MAX TEMP:  84;

EAGLE RIVER    MOCLDY    67  63  88 N3        30.17F
6HR MIN TEMP:  67; 6HR MAX TEMP:  82;

LAND O LAKES   MOCLDY    76  67  72 SW7       30.18R
6HR MIN TEMP:  76; 6HR MAX TEMP:  84;

PHILLIPS       PTCLDY    76  70  80 SW6       30.16F
6HR MIN TEMP:  76; 6HR MAX TEMP:  83;

TOMAHAWK       PTCLDY    74  69  82 CALM      30.17F
6HR MIN TEMP:  74; 6HR MAX TEMP:  82;

MEDFORD        CLEAR     76  74  91 SW3       30.17F
6HR MIN TEMP:  76; 6HR MAX TEMP:  80;

MERRILL        CLEAR     79  72  78 SW6       30.18F HX  82
6HR MIN TEMP:  78; 6HR MAX TEMP:  83; 6HR PCP:  0.01;

$$

WIZ029-030-035-036-043>047-300100-
CENTRAL WISCONSIN

CITY           SKY/WX    TMP DP  RH WIND       PRES   REMARKS
WAUSAU         PTCLDY    79  68  69 S7        30.16F HX  81
6HR MIN TEMP:  78; 6HR MAX TEMP:  82;

MOSINEE        PTCLDY    75  72  88 S3        30.19S
MARSHFIELD     CLOUDY    78  69  73 S7        30.17F HX  80
6HR MIN TEMP:  78; 6HR MAX TEMP:  84;

STEVENS POINT  MOCLDY    77  69  75 SW7       30.18S
6HR MIN TEMP:  77; 6HR MAX TEMP:  83;

WAUPACA        PTCLDY    81  73  76 CALM      30.17S HX  85
6HR MIN TEMP:  81; 6HR MAX TEMP:  87;

WAUTOMA        PTCLDY    78  70  76 SW5       30.18S HX  80
6HR MIN TEMP:  78; 6HR MAX TEMP:  85; 6HR PCP:  0.01;

WISC RAPIDS    MOCLDY    77  72  84 S3        30.19S
6HR MIN TEMP:  77; 6HR MAX TEMP:  85;

CAMP DOUGLAS   MOCLDY    77  72  83 S5        30.17F
$$

WIZ011>013-019>022-031-037>040-048>050-300100-
NORTHEAST WISCONSIN

CITY           SKY/WX    TMP DP  RH WIND       PRES   REMARKS
ANTIGO         PTCLDY    76  69  77 CALM      30.19F
6HR MIN TEMP:  76; 6HR MAX TEMP:  82;

SHAWANO        CLOUDY    82  71  69 CALM      30.17R HX  86
6HR MIN TEMP:  81; 6HR MAX TEMP:  86;

OCONTO         NOT AVBL
STURGEON BAY   PTCLDY    74  66  76 S8        30.18S
6HR MIN TEMP:  74; 6HR MAX TEMP:  80; 6HR PCP:  0.02;

GREEN BAY      MOCLDY    78  72  81 S6        30.16F HX  80
6HR MIN TEMP:  78; 6HR MAX TEMP:  84;

MANITOWOC      CLOUDY    74  63  68 CALM      30.18F
6HR MIN TEMP:  74; 6HR MAX TEMP:  79;

APPLETON       MOCLDY    79  66  65 VRB3      30.17S HX  81
CLINTONVILLE   MOCLDY    79  70  73 CALM      30.16S HX  81
OSHKOSH        PTCLDY    78  70  76 S5        30.17S HX  80
6HR MIN TEMP:  78; 6HR MAX TEMP:  84;

$$

WIZ032>034-041-042-053>061-300100-
SOUTHWEST WISCONSIN

CITY           SKY/WX    TMP DP  RH WIND       PRES   REMARKS
LA CROSSE      CLOUDY    81  73  76 S7        30.14F HX  86
6HR MIN TEMP:  81; 6HR MAX TEMP:  84;

SPARTA         CLOUDY    78  72  81 S3        30.17F HX  80
6HR MIN TEMP:  78; 6HR MAX TEMP:  82;

VIROQUA        CLOUDY    76  71  85 SE3       30.19S
6HR MIN TEMP:  76; 6HR MAX TEMP:  80;

BOSCOBEL       CLOUDY    80  74  81 CALM      30.16F HX  85
6HR MIN TEMP:  79; 6HR MAX TEMP:  83;

PRAIRIE DU CHI CLOUDY    77  73  88 CALM      30.15S
6HR MIN TEMP:  76; 6HR MAX TEMP:  81;

PLATTEVILLE    CLOUDY    78  76  95 E3        30.18F HX  80
6HR MIN TEMP:  77; 6HR MAX TEMP:  82;

$$

WIZ056-057-062-063-064-067-068-300100-
SOUTH CENTRAL WISCONSIN

CITY           SKY/WX    TMP DP  RH WIND       PRES   REMARKS
REEDSBURG      NOT AVBL
BARABOO/DELLS  CLOUDY    77  70  79 CALM      30.18S
6HR MIN TEMP:  76; 6HR MAX TEMP:  81;

LONE ROCK      CLOUDY    78  73  84 SE3       30.17S HX  81
6HR MIN TEMP:  78; 6HR MAX TEMP:  82;

MINERAL POINT  CLOUDY    79  75  89 CALM      30.19F HX  82
MADISON        MOCLDY    79  71  76 SE6       30.18S HX  82
6HR MIN TEMP:  79; 6HR MAX TEMP:  83;

MIDDLETON      PTCLDY    78  72  80 CALM      30.19F HX  81
6HR MIN TEMP:  78; 6HR MAX TEMP:  83;

WATERTOWN      CLOUDY    78  72  83 S5        30.18F
6HR MIN TEMP:  78; 6HR MAX TEMP:  83;

MONROE         MOCLDY    73  66  78 S7        30.20R
JANESVILLE     RAIN      72  72 100 S6        30.19R
$$

WIZ051-052-058>065-066-070>072-300100-
SOUTHEAST WISCONSIN

CITY           SKY/WX    TMP DP  RH WIND       PRES   REMARKS
MILWAUKEE      CLOUDY    78  70  76 SE3       30.18F HX  80
6HR MIN TEMP:  78; 6HR MAX TEMP:  83;

WAUKESHA       PTCLDY    75  66  73 SE8       30.20F
MILWAUKEE/TIMM NOT AVBL
RACINE         MOCLDY    76  70  82 SE3       30.21S
6HR MIN TEMP:  76; 6HR MAX TEMP:  82;

BURLINGTON     CLOUDY    73  66  79 S5        30.20F
6HR MIN TEMP:  73; 6HR MAX TEMP:  82;

KENOSHA        CLOUDY    75  70  84 E3        30.20S
6HR MIN TEMP:  75; 6HR MAX TEMP:  82;

FOND DU LAC    CLOUDY    76  70  82 S6        30.19R
6HR MIN TEMP:  76; 6HR MAX TEMP:  84;

SHEBOYGAN      PTCLDY    73  63  70 SW6       30.19R
6HR MIN TEMP:  73; 6HR MAX TEMP:  81;

WEST BEND      CLOUDY    73  64  73 CALM      30.19F
JUNEAU         CLOUDY    76  69  78 SE9       30.19F
6HR MIN TEMP:  76; 6HR MAX TEMP:  82;

$$

LSZ147-162-300100-
LAKE SUPERIOR

STATION/POSITION TIME  TEMP    WIND        PRES    WAVE
                       AIR SEA DIR/SP/G            HT/PER
                 (UTC) (F)     (DEG/KT/KT) (MB)    (FT/S)
W MID LAKE BUOY  2350   69 69  270/  4/  4 1018.1F   1
DEVILS ISLAND    0000   74     230/  9/ 10 1018.1F
PORT WING        2340   82     160/  2/  4 1018.6F
SAXON HARBOR     2340   73     210/  2/  2 1019.0F
$$

LMZ867-665-643>646-300100-
LAKE MICHIGAN

STATION/POSITION TIME  TEMP    WIND        PRES    WAVE
                       AIR SEA DIR/SP/G            HT/PER
                 (UTC) (F)     (DEG/KT/KT) (MB)    (FT/S)
CHAMBERS ISLAND  2340   77     140/  4/  8 1020.3F
S GREEN BAY BUOY 2300   77 75  180/  2/  4 1021.0
N MID LAKE BUOY  2350   72 71  200/ 10/ 12 1020.6F   1/ 3
NORTHPORT PIER   2300   76     160/  5/  C1F1C2F2C3F3C4F4C5F5C6F6C7F7C8M1C9M2Ca!


USA.gov is the U.S. government's official web portal to all federal, state and local government web resources and services.